This demonstration page uses our WeatherBlox Daily Observations layout. Learn more.

Left ArrowRight Arrow

Hourly Observations for July 8, 2015

Temp ( °F °C ) Dew Point ( °F °C ) Humidity (%) Winds ( mph kmh ) Pressure ( in mb ) Visibility ( mi km ) Precip ( " mm )
12:19 am 00:19 Cloudy 69 20.6 66 18.9 90 90 N N/A 30.03 1017 10 16 N/A
12:33 am 00:33 Cloudy 69 20.6 66 18.9 90 90 N N/A 30.03 1017 10 16 N/A
12:53 am 00:53 Cloudy 68 20 66 18.9 93 93 VRB 3 6 30.03 1017 10 16 N/A
1:29 am 01:29 Cloudy 68 20 65 18.3 90 90 NW 5 7 30.06 1018 10 16 N/A
1:53 am 01:53 Cloudy 68 20 65 18.3 90 90 NNW 6 9 30.03 1017 10 16 N/A
2:53 am 02:53 Cloudy 67 19.4 64 17.8 91 91 NNW 5 7 30.03 1017 10 16 N/A
3:53 am 03:53 Cloudy 67 19.4 64 17.8 91 91 VRB 3 6 30.03 1017 10 16 N/A
4:53 am 04:53 Cloudy 67 19.4 64 17.8 91 91 N N/A 30.03 1017 10 16 N/A
5:19 am 05:19 Cloudy 67 19.4 64 17.8 91 91 NNE 5 7 30.03 1017 10 16 N/A
5:32 am 05:32 Cloudy 67 19.4 64 17.8 91 91 NE 3 6 30.06 1018 10 16 N/A
5:53 am 05:53 Cloudy 67 19.4 64 17.8 91 91 N N/A 30.04 1017 9 14 N/A
6:11 am 06:11 Cloudy 67 19.4 64 17.8 91 91 N N/A 30.06 1018 9 14 N/A
6:48 am 06:48 Cloudy 66 19 64 18 94 94 N N/A 30.06 1018 7 11 N/A
6:53 am 06:53 Cloudy 67 19.4 64 17.8 91 91 N N/A 30.05 1018 7 11 N/A
7:08 am 07:08 Cloudy 67 19.4 64 17.8 91 91 N N/A 30.06 1018 7 11 N/A
7:16 am 07:16 Cloudy 67 19.4 64 17.8 91 91 N N/A 30.06 1018 7 11 N/A
7:53 am 07:53 Cloudy with Mist and Fog 68 20 64 17.8 87 87 N N/A 30.05 1018 6 10 N/A
8:40 am 08:40 Cloudy with Light Rain 68 20 65 18.3 90 90 ENE 3 6 30.06 1018 4 6 N/A
8:53 am 08:53 Cloudy with Light Rain 67 19.4 65 18.3 93 93 N N/A 30.06 1018 3 4 N/A
9:11 am 09:11 Cloudy with Light Rain 67 19.4 66 18.9 97 97 N N/A 30.06 1018 2 2 0.01 0.25
9:50 am 09:50 Cloudy with Light Rain 68 20 66 19 94 94 N N/A 30.06 1018 2 3 0.03 0.76
9:53 am 09:53 Cloudy with Light Rain 68 20 66 18.9 93 93 NE 3 6 30.07 1018 2 2 0.03 0.76
10:01 am 10:01 Cloudy with Light Rain 68 20 66 18.9 93 93 N N/A 30.06 1018 2 3 0.01 0.25
10:34 am 10:34 Cloudy with Light Rain 68 20 66 18.9 93 93 ENE 5 7 30.06 1018 4 6 0.01 0.25
10:53 am 10:53 Cloudy with Light Rain 69 20.6 67 19.4 93 93 ENE 5 7 30.07 1018 2 3 0.02 0.51
11:08 am 11:08 Cloudy with Light Rain 69 20.6 67 19.4 93 93 ENE 6 9 30.06 1018 4 6 N/A
11:53 am 11:53 Cloudy 68 20 66 18.9 93 93 ENE 6 9 30.08 1019 10 16 N/A
12:16 pm 12:16 Cloudy with Light Rain 68 20 66 18.9 93 93 NE 6 9 30.06 1018 2 3 0.01 0.25
12:27 pm 12:27 Cloudy with Light Rain 68 20 66 18.9 93 93 NE 6 9 30.06 1018 5 8 0.01 0.25
12:53 pm 12:53 Cloudy with Light Rain 69 20.6 66 18.9 90 90 ENE 5 7 30.07 1018 5 8 0.01 0.25
1:06 pm 13:06 Cloudy with Light Rain 69 20.6 67 19.4 93 93 NE 5 7 30.06 1018 3 4 0.02 0.51
1:17 pm 13:17 Cloudy with Light Rain 69 20.6 67 19.4 93 93 N N/A 30.06 1018 4 6 0.02 0.51
1:53 pm 13:53 Cloudy with Rain 70 21.1 67 19.4 90 90 N N/A 30.07 1018 3 5 0.05 1.27
2:01 pm 14:01 Cloudy with Rain 69 20.6 67 19.4 93 93 NNE 3 6 30.06 1018 2 3 0.03 0.76
2:27 pm 14:27 Cloudy with Rain 69 20.6 67 19.4 93 93 NE 3 6 30.06 1018 3 5 0.09 2.29
2:41 pm 14:41 Cloudy with Light Rain 70 21.1 67 19.4 90 90 N N/A 30.06 1018 5 8 0.10 2.54
2:50 pm 14:50 Cloudy with Light Rain 70 21 66 19 88 88 N N/A 30.06 1018 8 13 0.11 2.79
2:53 pm 14:53 Cloudy with Light Rain 70 21.1 67 19.4 90 90 N N/A 30.06 1018 9 14 0.11 2.79
3:40 pm 15:40 Cloudy with Light Rain 71 21.7 68 20 90 90 N N/A 30.06 1018 10 16 N/A
3:53 pm 15:53 Cloudy with Light Rain 71 21.7 67 19.4 87 87 N N/A 30.06 1018 10 16 N/A
4:22 pm 16:22 Cloudy with Light Rain 71 21.7 67 19.4 87 87 N N/A 30.06 1018 10 16 N/A
4:51 pm 16:51 Cloudy with Light Rain 72 22 68 20 88 88 E 3 6 30.06 1018 10 16 0.01 0.25
4:53 pm 16:53 Cloudy with Light Rain 72 22.2 69 20.6 91 91 E 3 6 30.04 1017 10 16 0.01 0.25
5:18 pm 17:18 Cloudy with Light Rain 71 21.7 68 20 90 90 ESE 3 6 30.06 1018 10 16 N/A
5:53 pm 17:53 Cloudy with Light Rain 71 21.7 69 20.6 94 94 N N/A 30.05 1018 6 10 0.01 0.25
6:23 pm 18:23 Cloudy with Light Rain 72 22.2 70 21.1 94 94 N N/A 30.06 1018 10 16 0.01 0.25
6:48 pm 18:48 Cloudy with Light Rain 72 22 70 21 94 94 N N/A 30.03 1017 10 16 0.01 0.25
6:53 pm 18:53 Cloudy with Light Rain 72 22.2 70 21.1 94 94 SW 3 6 30.03 1017 10 16 0.01 0.25
7:09 pm 19:09 Cloudy 73 22.8 70 21.1 90 90 N N/A 30.03 1017 10 16 N/A
7:53 pm 19:53 Cloudy 72 22.2 70 21.1 94 94 N N/A 30.04 1017 10 16 N/A
8:53 pm 20:53 Mostly Cloudy with Mist and Fog 72 22.2 70 21.1 94 94 N N/A 30.04 1017 6 10 N/A
9:53 pm 21:53 Mostly Cloudy with Light Rain 71 21.7 70 21.1 96 96 N N/A 30.04 1017 4 6 N/A
10:11 pm 22:11 Mostly Clear with Mist and Fog 71 21.7 70 21.1 96 96 N N/A 30.06 1018 4 6 N/A
10:53 pm 22:53 Mostly Clear 71 21.7 70 21.1 96 96 N N/A 30.04 1017 7 11 N/A
11:53 pm 23:53 Mostly Cloudy with Mist and Fog 71 21.7 70 21.1 96 96 N N/A 30.02 1017 6 10 0.01 0.25

Powered by AerisWeather